Aérodrome :
LOGIN :

S'inscrire | Disclaimer

   EN    FR    IT 

 










Légende :    VFR   VFR Marginal   IFR   IFR Intensif   IFR Très Intensif
Visi : 
Plafond : 
>= 8 km
>= 3000ft
5 à 8 km
1000 à 3000 ft
1500m à 5 km
500 à 1000 ft
800 à 1500m
200 à 500 ft
< 800m
< 200 ft
Symboles :   Orages  Brouillard  Fortes neiges  Fortes précipitations  Vent > 20 kt
SIGMETs :   Divers  Orages  Givrage  Turbulence  Onde Orograph.  Cendres Volcan.







- Altitude de l'aérodrome : 124 ft
- Code IATA : AVN
- Voir les cartes d'approche


LFMV - Avignon Caumont

DERNIER METAR :
  • 180430Z AUTO 35010KT CAVOK 21/16 Q1016 BECMG 34015G25KT

METARs EXPIRÉS :
  • 180400Z AUTO 35011KT 320V020 CAVOK 21/16 Q1016 BECMG 34015G25KT
  • 180330Z AUTO 35011KT CAVOK 21/16 Q1016 BECMG 34015G25KT
  • 180300Z AUTO 35011KT CAVOK 21/16 Q1016 BECMG 34015G25KT
  • 180230Z AUTO 35012KT CAVOK 22/17 Q1016
  • 180200Z AUTO 35012KT CAVOK 22/16 Q1016

TAF TAF LFMV
Valide du 18 à 03h jusqu'au 19 à 03h UTC


180200Z 1803/1903 34015G25KT CAVOK
ATIS : +33 4 90 84 32 84
Pas de NOTAMs connus pour ce terrain.



MET'MAP, la Météo Aéronautique d'un coup d'oeil ! - Copyright ORBIFLY Décembre 2007 - Disclaimer

ORBIFLY MET'MAP TEAM :

Programmation & Développement : Alexandra Zaïnal
Conception & Développement : Baudouin d'Aumeries
Co-Programmation & Développement : Marc-Olivier Méhu
Soutien technique & logistique : Manuel Goepfert

Contact : metmap@orbifly.com




SOURCES & CREDITS :

   NOAA